Weather in Buki

Ukraine / Cherkassi District     49°05′34″N   30°24′11″E
temp.,
°C
wind,
m/s
gust,
m/s
humid.,
%
clouds,
%
prec.,
mm/h
press.,
hPa
HPBL,
m
6 may, thu
thu600:00+9s71389100 1.0 1010437
03:00+9s7158320 1.6 1008578
06:00+8s715835 0.1 1007469
09:00+12sw7107573 0.1 1009678
12:00+9nw6982100 0.2 1011715
15:00+14nw5756100 0.2 10121800
18:00+14nw56518 0.0 10131974
21:00+9nw2262100 0.0 101410
7 may, fri
fri700:00+7nne0067100 0.0 101510
03:00+7sse346635 0.0 101564
06:00+7sse3681100 0.0 1015119
09:00+10sse4675100 0.0 1015215
12:00+12s71273100 0.0 1014815
15:00+13sse71370100 0.9 10121029
18:00+14s71382100 0.8 1008779
21:00+13s61194100 5.8 1008340
8 may, sat
sat800:00+11ssw6139698 0.1 1007457
03:00+11sw4898100 0.6 1007259
06:00+10nw51094100 0.6 1009537
09:00+8nw71186100 1.1 1012699
12:00+11nw8963100 0.0 10141301
15:00+11nw71053100 0.0 10151924
18:00+11nw785946 0.0 10161518
21:00+6nw410765 0.0 1019251
9 may, sun
sun900:00+5nw512832 0.0 1020314
03:00+3nw410890 0.0 1022234
06:00+3nw410880 0.0 1024231
09:00+9nw58660 0.0 1025759
12:00+12nw57505 0.0 10251766
15:00+14nnw564273 0.0 10252321
18:00+14nnw355199 0.0 10251050
21:00+8e227112 0.0 102715
10 may, mon
mon1000:00+7sse11665 0.0 102810
03:00+6s01704 0.0 102810
06:00+5e22730 0.0 102810
09:00+12e23585 0.0 1028412
12:00+15ene22475 0.0 10271392
15:00+16ne34421 0.0 10261698
18:00+15ne44510 0.0 10251320
21:00+9ne35671 0.0 102558